Location: Aalen
(48.8330°N, 10.1000°E)
Time: 09:42:51
(UTC+02:00)

ISS - Visible Passes

Search period start: 21 May 2019 00:00
Search period end: 31 May 2019 00:00
Orbit: 407 x 410 km, 51.6° (Epoch: 21 May)

Date Brightness Start Highest point End Pass type
(mag) Time Alt. Az. Time Alt. Az. Time Alt. Az.
21 May -2.9 00:24:39 10° WNW 00:27:53 49° N 00:31:08 10° ENE visible
21 May -3.8 02:01:21 10° WNW 02:04:32 78° NNW 02:04:32 78° NNW visible
21 May -3.8 21:56:55 10° SW 22:00:12 63° SSE 22:03:29 10° ENE visible
21 May -3.0 23:33:36 10° W 23:36:52 52° N 23:40:07 10° ENE visible
22 May -3.4 01:10:24 10° WNW 01:13:42 63° NNE 01:14:14 52° ENE visible
22 May -3.3 22:42:33 10° W 22:45:50 61° NNW 22:49:07 10° ENE visible
23 May -3.1 00:19:25 10° WNW 00:22:40 53° N 00:24:32 22° ENE visible
23 May -1.8 01:56:02 10° WNW 01:57:13 20° WNW 01:57:13 20° WNW visible
23 May -3.6 21:51:31 10° WSW 21:54:49 78° NNW 21:58:09 10° ENE visible
23 May -2.9 23:28:23 10° WNW 23:31:37 49° N 23:34:51 10° E visible
24 May -3.3 01:05:04 10° WNW 01:07:41 53° WNW 01:07:41 53° WNW visible
24 May -2.9 22:37:19 10° W 22:40:34 50° N 22:43:48 10° ENE visible
25 May -3.6 00:14:04 10° WNW 00:17:23 71° NNE 00:18:12 46° E visible
25 May -1.1 01:50:49 10° W 01:50:55 11° W 01:50:55 11° W visible
25 May -3.0 21:46:14 10° W 21:49:29 56° N 21:52:45 10° ENE visible
25 May -3.2 23:23:03 10° WNW 23:26:20 57° N 23:28:46 16° E visible
26 May -2.3 00:59:42 10° WNW 01:01:29 27° W 01:01:29 27° W visible
26 May -3.0 22:32:01 10° WNW 22:35:15 51° N 22:38:30 10° E visible
27 May -4.0 00:08:39 10° WNW 00:11:57 72° SSW 00:12:04 71° S visible
27 May -3.8 23:17:37 10° WNW 23:20:56 82° NNE 23:22:41 26° ESE visible
28 May -1.5 00:54:30 10° W 00:55:24 15° W 00:55:24 15° W visible
28 May -3.4 22:26:35 10° WNW 22:29:53 63° NNE 22:33:10 10° E visible
29 May -3.0 00:03:16 10° WNW 00:06:01 36° SW 00:06:01 36° SW visible
29 May -3.7 23:12:08 10° WNW 23:15:24 58° SSW 23:16:41 32° SE visible
30 May -3.8 22:21:04 10° WNW 22:24:23 85° SSW 22:27:21 12° ESE visible
